Lapse_Rate
6.3 6.5 6.5 6.5 6.5 6.5 6.5 6.5 6.5 6.5 6.5 6.5 6.5 6.5 6.5 7.0 7.1 7.0 7.2 7.2 7.2 6.1 6.7 5.9 5.5 5.4 5.5 5.5 5.7 5.7 5.5 5.3 5.2 4.9 5.3 5.1 5.4 4.3 4.3 3.9 4.0 4.1 4.6 4.2
6.5 6.5 6.5 6.5 6.5 6.5 6.5 6.5 6.5 6.5 6.5 6.5 6.5 6.5 6.5 6.7 6.8 7.1 7.1 7.2 7.2 6.7 6.4 5.9 5.6 5.4 5.5 5.8 5.9 6.0 5.7 5.0 5.1 6.1 5.4 5.3 4.8 3.9 3.2 3.6 3.7 4.0 3.5 3.7
6.5 6.5 6.5 6.5 6.5 6.5 6.5 6.5 6.5 6.5 6.5 6.5 6.5 6.5 6.5 6.6 7.0 7.2 7.3 7.3 7.3 7.1 5.7 5.6 4.9 4.9 5.3 5.3 4.9 5.3 5.7 5.2 5.0 5.2 3.8 2.9 2.4 3.0 3.8 3.8 3.8 3.0 2.9 3.2
6.5 6.5 6.5 6.5 6.5 6.5 6.5 6.5 6.5 6.5 6.5 6.5 6.5 6.5 6.5 6.5 6.5 6.6 7.0 7.2 7.2 6.6 5.7 5.5 4.7 4.8 4.8 4.9 5.2 5.5 5.0 4.9 5.0 4.0 4.7 4.4 4.8 4.6 4.7 4.2 3.5 3.1 2.4 2.3
6.5 6.5 6.5 6.5 6.5 6.5 6.5 6.5 6.5 6.5 6.5 6.5 6.5 6.5 6.5 6.5 6.5 6.5 6.8 7.0 6.8 6.7 5.9 5.3 5.3 5.4 5.0 4.8 4.4 4.8 5.0 4.9 4.8 4.3 4.7 4.9 4.4 4.5 3.7 2.3 1.3 1.8 1.9 2.4
6.5 6.2 6.5 6.5 6.5 6.5 6.5 6.5 6.5 6.5 6.5 6.5 6.5 6.5 6.5 6.5 6.5 6.5 6.7 7.0 5.8 5.0 4.4 5.1 5.3 5.4 5.4 4.2 4.2 4.2 4.6 5.0 4.7 4.0 3.6 4.2 3.9 2.9 3.5 3.0 2.4 2.3 2.4 2.3
6.5 6.5 6.5 6.4 6.5 6.5 6.5 6.5 6.5 6.5 6.5 6.5 6.5 6.5 6.5 6.5 6.5 6.5 6.6 6.9 6.2 5.3 5.3 4.6 4.5 4.1 4.8 3.5 3.5 3.6 4.3 4.8 4.0 3.8 3.7 3.4 3.5 2.5 3.6 2.3 1.0 0.5 0.8 1.5
6.5 6.5 6.5 6.5 6.5 6.5 6.5 6.5 6.5 6.5 6.5 6.5 6.5 6.5 6.5 6.5 6.8 6.9 6.9 6.0 6.2 5.7 5.5 4.4 4.0 4.2 3.7 2.7 3.1 3.3 3.5 4.2 3.6 3.6 3.7 3.1 2.8 1.7 2.3 3.2 2.7 1.1 1.5 1.7
6.5 6.5 6.5 6.5 6.5 6.5 6.5 6.5 6.5 6.5 6.5 6.5 6.5 6.5 6.5 6.5 6.5 6.6 6.8 5.9 5.3 5.2 5.3 4.8 4.5 4.0 3.5 2.9 2.8 2.6 3.4 4.0 3.0 3.2 3.7 2.6 2.2 1.9 1.4 1.7 2.7 2.5 1.7 2.5
6.5 6.5 6.5 6.5 6.5 6.5 6.5 6.5 6.5 6.5 6.5 6.5 6.5 6.5 6.5 6.5 6.5 6.5 6.5 6.6 4.7 3.5 3.0 3.1 4.1 4.2 3.7 3.4 3.7 2.9 3.4 3.8 3.2 3.4 3.4 2.9 1.9 1.5 0.8 1.4 2.4 2.6 2.3 3.1
6.5 6.5 6.5 6.5 6.5 6.5 6.5 6.5 6.5 6.5 6.5 6.5 6.5 6.5 6.5 6.5 6.5 6.5 6.6 5.6 4.6 3.4 3.1 2.6 2.7 3.1 3.8 4.3 4.4 3.2 3.4 4.2 4.3 2.8 1.6 1.2 0.9 1.0 0.4 0.7 2.3 1.8 1.9 2.2
6.5 6.5 6.5 6.5 6.5 6.5 6.5 6.5 6.5 6.5 6.5 6.5 6.5 6.5 6.5 6.5 6.5 6.6 6.6 5.6 5.0 3.7 3.5 2.5 2.2 2.0 2.3 2.4 3.2 3.3 3.3 3.4 2.1 0.9 2.0 0.9 0.8 0.7 -0.1 0.0 0.0 0.5 0.4 2.0
6.5 6.5 6.5 6.5 6.5 6.5 6.5 6.5 6.5 6.5 6.5 6.5 6.5 6.5 6.5 6.6 6.6 6.6 6.6 5.5 4.1 3.5 3.5 2.8 2.1 2.0 2.2 2.3 1.2 1.8 1.8 1.7 0.5 0.7 1.4 1.6 0.9 0.6 1.6 1.7 2.0 1.6 2.3 3.1
5.7 6.5 6.5 6.5 6.5 6.5 6.5 6.5 6.5 6.5 6.5 6.5 6.5 6.5 6.5 6.5 6.5 6.6 6.2 4.8 4.9 4.0 3.1 3.4 3.0 2.8 2.7 2.6 2.5 2.1 1.6 0.8 0.8 1.2 1.8 1.7 2.0 2.5 3.1 3.4 2.7 1.7 2.3 3.2
6.5 6.5 6.5 6.5 6.5 6.5 6.5 6.5 6.5 6.5 6.5 6.5 6.5 6.5 6.5 6.5 6.5 6.7 5.8 5.0 5.0 4.8 4.5 4.6 4.4 3.8 3.5 3.2 2.7 2.5 2.2 1.4 1.5 2.0 2.5 2.5 2.5 3.0 3.3 2.2 1.4 1.6 2.8 3.6
6.5 6.5 6.5 6.5 6.5 6.5 6.5 6.5 6.5 6.5 6.5 6.5 6.5 6.5 6.5 6.6 6.6 6.7 6.0 5.9 6.0 5.1 4.4 3.7 3.3 3.2 2.7 2.6 2.6 1.8 1.3 0.6 0.4 1.3 2.5 3.0 3.1 3.0 2.4 2.1 1.8 2.4 3.7 3.6
6.5 6.5 6.5 6.5 6.5 6.5 6.5 6.5 6.5 6.5 6.5 6.5 6.5 6.5 6.5 6.5 6.6 6.8 6.9 6.2 5.5 4.1 3.0 2.1 1.3 0.7 0.7 1.1 1.2 1.7 1.0 0.1 0.4 0.8 1.8 2.6 3.2 3.4 2.4 2.3 2.7 3.2 4.4 4.3
6.5 6.5 6.5 6.5 6.5 6.5 6.5 6.5 6.5 6.5 6.5 6.5 6.5 6.5 6.5 6.7 7.0 6.6 6.0 5.0 3.8 2.8 1.7 0.7 0.8 0.5 0.1 0.5 0.3 0.5 0.7 0.6 0.9 1.5 2.3 3.1 3.8 3.9 3.8 4.0 3.7 4.3 4.6 4.9
6.5 6.5 6.5 6.5 6.5 6.5 6.5 6.5 6.5 6.5 6.5 6.5 6.5 6.5 6.8 7.0 7.1 6.8 3.7 3.2 1.9 0.7 0.0 -0.5 -0.5 -0.5 -0.3 -0.1 0.1 0.5 0.4 1.1 1.9 2.6 3.5 4.1 4.8 4.6 4.8 4.8 4.0 4.4 4.8 5.1
6.5 6.5 6.5 6.5 6.5 6.5 6.5 6.5 6.3 6.5 6.5 6.5 6.6 6.5 6.6 6.9 6.5 6.5 4.1 2.3 0.8 0.3 0.4 0.2 -0.1 0.2 0.2 -0.2 0.6 0.8 0.9 2.2 2.7 3.9 4.6 5.3 5.8 5.7 5.1 5.1 4.9 5.4 6.7 6.7
6.5 6.5 6.5 6.5 6.5 6.5 6.5 6.5 5.7 6.5 6.5 6.1 6.5 6.8 6.8 6.5 5.9 3.8 2.6 1.6 1.1 1.0 0.7 0.7 0.9 0.1 0.4 1.5 2.2 1.3 2.9 3.5 5.5 6.5 7.0 7.2 7.2 7.0 7.0 6.3 5.5 5.0 4.6 4.4
6.5 6.5 6.5 6.5 6.5 6.5 6.4 6.3 6.5 6.3 4.3 4.0 6.4 6.4 6.4 1.7 2.0 2.4 2.4 1.5 1.8 1.6 1.7 1.8 0.7 1.0 2.3 3.6 3.4 3.8 4.2 6.3 6.6 6.5 6.1 5.7 5.5 5.2 5.2 5.3 5.4 5.6 5.9 5.6
6.5 6.5 6.5 6.5 6.5 6.4 5.5 5.5 3.9 2.7 4.3 4.0 5.4 5.1 2.6 2.1 3.1 2.8 2.6 2.9 2.9 2.7 2.4 2.9 2.0 2.1 3.5 4.3 4.9 4.3 5.3 6.0 5.5 5.2 4.6 4.4 4.5 4.4 4.5 5.1 5.3 5.7 5.9 5.8
6.5 6.6 6.5 6.5 6.5 6.5 5.3 4.1 3.8 3.0 3.0 3.0 4.5 3.5 2.4 1.9 3.0 3.1 3.4 3.3 3.2 3.6 3.4 3.4 3.1 3.3 3.6 4.2 3.9 4.3 4.8 5.0 4.6 3.8 3.7 3.9 4.3 4.7 4.9 5.4 5.5 5.7 5.5 5.3
6.5 6.5 6.5 6.5 6.5 6.4 5.7 4.3 3.7 1.8 1.3 1.7 2.1 1.8 1.1 0.2 3.0 3.1 3.4 3.6 3.7 3.7 3.7 3.9 3.3 3.2 3.3 3.8 3.3 3.6 3.7 4.4 3.7 3.7 3.6 3.6 3.6 3.8 4.1 4.4 4.1 4.2 5.0 4.8
6.6 6.5 6.5 6.5 5.6 5.4 4.9 2.3 1.3 1.5 1.4 1.1 -0.1 0.7 1.5 0.9 1.2 2.7 3.2 3.7 3.8 3.6 3.9 3.5 3.2 2.7 3.0 2.8 2.4 2.6 3.0 3.4 3.7 3.5 3.3 2.3 2.8 2.8 3.3 3.4 4.1 3.2 3.4 4.0
Wind_Speed
1 2 6 9 6 3 2 1 1 1 1 3 7 5 14 14 12 11 11 12 14 15 13 11 12 14 14 13 14 14 13 11 9 6 5 4 6 5 5 9 11 13 13 12
2 5 5 2 2 5 3 1 0 2 4 4 2 4 5 13 15 15 13 13 15 15 12 12 14 14 16 16 16 15 16 15 13 9 6 4 5 4 5 9 10 12 13 12
4 4 5 5 2 5 4 3 3 2 2 3 3 2 5 8 11 9 12 12 14 16 16 14 15 17 17 17 16 15 15 14 13 13 8 5 6 4 4 6 6 10 13 14
5 1 4 4 4 4 3 8 2 4 2 2 1 3 4 7 10 12 15 15 18 18 16 15 17 19 20 18 15 16 16 16 14 14 12 12 9 8 7 7 7 11 13 15
5 6 4 3 6 7 5 4 2 3 3 1 1 1 3 1 10 17 19 17 17 18 18 19 19 18 17 16 16 15 16 16 15 16 15 12 10 7 6 6 10 9 11 13
4 1 5 5 2 5 6 2 6 3 2 1 2 3 3 4 10 10 16 17 18 18 18 19 17 17 17 15 15 15 17 16 15 15 14 14 12 11 9 11 10 9 8 10
1 3 1 3 2 1 3 3 2 1 1 3 2 2 7 7 6 9 11 15 18 17 18 18 19 19 18 18 18 15 17 17 16 17 16 15 12 12 14 14 10 10 9 9
6 3 6 4 5 6 3 5 4 3 3 2 1 4 4 4 5 9 9 10 10 15 16 19 21 18 18 19 19 18 18 18 17 17 17 13 11 7 8 12 9 7 8 8
5 4 2 2 2 2 4 3 1 6 2 1 2 4 9 2 3 4 5 5 5 10 13 16 17 18 17 17 18 18 17 17 17 19 15 15 13 13 12 12 10 8 8 9
7 2 1 0 3 5 2 7 3 1 4 3 2 4 3 5 5 3 6 7 6 4 6 10 12 14 14 15 13 13 16 19 18 16 14 12 11 11 11 11 13 13 11 13
4 3 1 2 4 8 3 2 3 4 2 3 3 4 6 6 4 5 6 6 8 6 7 5 8 10 12 11 14 16 16 16 15 14 13 12 12 13 13 13 12 11 10 11
6 5 4 6 1 1 3 4 4 3 4 1 1 5 3 9 6 6 8 3 3 5 6 5 5 5 7 10 10 11 11 12 11 9 11 12 11 12 12 13 12 13 15 15
7 1 2 2 1 2 3 4 4 4 3 6 4 5 1 5 6 6 9 5 4 4 3 3 2 3 4 5 6 8 8 10 7 8 8 9 9 10 12 12 11 12 12 11
10 4 6 10 6 5 5 6 6 5 3 4 6 6 8 8 7 10 6 5 5 3 2 2 2 3 4 6 7 7 7 7 7 8 8 9 9 10 10 11 12 12 11 10
5 7 6 5 5 6 6 5 10 10 7 7 8 9 9 7 6 5 4 3 6 7 8 7 5 4 2 2 2 2 2 5 7 8 8 8 8 9 9 9 8 8 9 8
1 5 5 3 3 6 5 7 10 10 2 8 7 8 10 3 2 0 3 7 11 11 11 12 12 11 9 6 3 2 1 1 2 3 3 4 6 7 7 8 7 6 5 6
4 7 4 4 2 3 5 7 10 5 5 5 8 11 5 5 5 6 8 9 10 9 10 11 10 9 8 9 7 7 4 3 3 2 2 4 6 7 7 7 8 7 8 7
6 4 2 3 2 5 3 2 3 11 5 9 5 5 5 3 6 7 6 12 10 8 8 9 9 9 10 9 10 9 9 8 8 7 6 6 8 9 9 10 11 10 8 6
3 5 3 5 5 3 2 5 7 7 14 10 13 6 6 12 9 5 4 6 10 9 8 9 9 10 10 11 10 12 12 11 11 10 9 9 10 12 13 13 10 7 5 3
4 3 4 3 5 9 5 4 5 4 12 8 11 11 17 11 7 6 8 8 10 10 8 9 10 10 11 11 11 14 13 13 13 12 11 11 12 12 11 9 6 3 1 2
3 2 6 3 3 6 6 4 5 6 14 7 13 15 17 10 1 11 12 10 10 10 10 10 11 13 12 11 14 16 15 15 12 12 11 10 9 7 5 4 3 2 2 2
7 7 4 3 2 8 8 6 10 7 1 6 10 14 12 10 13 14 13 12 12 12 11 12 14 14 13 13 15 15 13 10 9 10 10 9 8 6 5 6 5 4 4 6
4 6 6 9 7 2 11 4 7 4 4 6 12 12 14 16 11 14 13 13 11 13 13 13 15 16 13 12 12 13 9 10 10 10 9 8 8 7 7 6 6 5 5 5
3 3 3 3 5 7 7 3 3 5 5 6 9 16 17 14 17 16 15 13 13 13 13 14 15 15 13 11 11 10 9 9 10 10 9 8 8 6 6 5 5 5 6 7
3 8 6 3 5 2 9 9 5 5 5 10 10 10 15 20 17 17 15 15 14 14 13 12 13 13 13 12 12 11 10 9 9 8 7 7 6 7 7 7 6 6 6 8
5 6 5 6 10 6 5 11 9 10 9 12 18 14 13 18 19 19 15 14 14 14 13 13 14 14 12 12 11 10 9 9 8 7 6 6 5 6 6 6 6 7 9 10
Wind_Direction
72 171 222 238 194 216 145 184 233 261 218 152 207 193 194 191 206 207 205 209 213 220 208 205 201 196 196 200 199 198 195 193 179 169 174 182 186 168 177 179 175 167 163 160
111 231 216 201 185 230 163 177 280 301 340 193 166 227 194 199 217 211 207 209 217 225 223 211 202 204 209 204 204 201 199 186 188 183 179 180 175 161 182 170 166 164 154 149
180 203 112 147 199 219 172 175 204 240 97 64 137 231 190 211 230 221 226 219 226 224 221 215 207 206 208 209 204 204 204 194 192 185 157 120 110 129 168 164 153 157 155 149
229 206 164 185 212 198 206 177 193 96 182 183 305 264 250 201 217 233 234 221 223 220 221 219 207 208 207 207 205 204 198 196 197 184 185 182 189 180 196 179 162 159 163 155
226 166 172 170 213 162 250 128 164 114 128 138 163 228 286 77 229 232 230 231 230 222 218 216 215 216 211 204 205 203 200 197 193 192 194 191 189 181 162 159 150 159 160 165
225 162 170 196 231 173 148 148 57 60 113 190 149 193 274 199 224 243 234 227 229 222 220 222 220 212 212 206 204 202 202 203 195 193 190 195 190 174 170 173 171 171 166 169
342 219 207 145 127 83 105 71 315 217 110 204 83 155 244 248 244 248 252 228 228 225 222 216 210 207 206 201 201 199 202 205 198 197 195 200 196 179 184 177 179 173 172 183
175 249 179 180 208 168 168 160 177 215 187 168 146 220 230 226 252 260 271 268 253 233 223 220 218 212 207 201 201 201 200 206 200 196 201 195 183 182 188 195 197 192 183 181
146 251 277 163 146 137 144 186 131 105 23 242 231 265 273 202 322 343 314 274 251 236 227 226 222 216 211 204 202 200 202 208 204 204 202 201 193 191 199 195 191 192 183 179
194 156 306 163 138 45 154 135 146 44 171 235 267 289 247 294 308 342 317 311 308 285 229 221 221 218 214 212 205 199 208 211 211 208 208 204 200 196 193 185 190 191 184 176
136 144 240 192 198 171 143 174 59 116 138 196 236 247 219 239 248 275 292 282 271 274 266 234 215 215 211 204 195 201 210 216 215 205 202 196 195 196 192 191 191 185 172 169
187 147 174 200 81 121 153 174 162 138 196 163 239 257 229 244 271 250 272 295 261 260 264 249 203 199 202 203 202 206 208 212 208 190 200 210 200 195 199 200 189 178 178 180
176 182 157 314 100 37 197 183 147 109 99 192 199 252 223 265 272 248 266 284 299 290 272 286 80 165 193 190 177 193 199 212 194 198 205 205 204 203 212 205 195 184 176 168
129 144 171 224 222 166 193 192 184 153 161 185 222 251 271 280 277 292 295 284 318 7 56 78 107 151 172 187 201 200 189 190 179 187 200 204 203 207 207 204 194 180 174 165
149 187 181 224 209 183 199 181 177 199 202 197 239 213 251 255 267 285 308 35 75 65 65 73 94 109 133 189 214 232 197 173 178 187 198 203 194 193 191 173 150 144 154 156
194 188 152 188 146 205 232 207 196 217 224 245 238 242 237 244 255 17 93 114 99 89 81 73 71 68 54 33 13 10 18 115 176 196 208 184 172 165 156 135 127 125 125 121
170 140 138 220 92 148 284 210 192 193 204 191 213 231 169 200 179 148 126 112 107 98 88 79 70 62 53 48 45 45 48 90 107 101 105 127 134 133 125 123 124 122 124 118
157 136 107 156 115 226 248 101 204 219 237 219 251 230 210 149 104 108 125 130 115 100 86 76 76 76 63 66 68 71 69 72 77 79 90 111 120 116 116 110 103 98 102 91
203 134 118 152 201 296 211 200 180 177 251 215 228 196 149 133 116 84 76 97 111 105 89 80 73 72 70 68 77 85 81 83 83 83 88 96 107 111 114 110 103 98 100 136
87 62 159 153 189 223 191 209 142 119 271 198 188 177 158 159 165 169 152 127 107 97 92 91 84 85 81 74 84 84 82 84 83 86 90 95 99 98 94 96 102 119 149 245
121 46 170 156 216 285 245 141 145 155 262 192 182 170 167 179 155 133 134 115 101 103 105 103 95 85 81 87 89 84 86 86 92 91 87 82 78 81 80 77 57 41 9 316
164 157 176 113 143 261 158 101 173 216 198 188 172 168 156 123 124 128 128 123 122 118 111 102 94 86 83 87 92 92 87 88 82 78 73 66 63 59 53 46 30 4 341 317
218 194 178 191 204 207 197 195 192 150 189 194 166 159 142 139 143 138 132 129 124 115 106 102 99 92 79 77 85 89 79 83 81 75 66 57 55 46 39 32 17 356 348 328
236 181 175 121 210 218 217 229 223 190 205 173 172 151 150 145 145 137 134 132 125 120 114 110 103 96 88 79 76 78 78 81 79 73 63 53 51 40 34 30 20 3 358 346
195 144 162 261 265 307 251 227 189 169 144 121 115 146 147 139 142 140 136 133 128 123 118 113 108 101 93 85 74 65 66 75 76 71 58 46 37 26 20 25 15 9 6 357
200 171 169 211 207 182 219 187 159 158 166 147 131 124 136 142 141 139 134 134 131 125 123 113 109 106 98 88 77 65 59 62 67 62 45 34 29 22 17 8 358 32 4 360